^^
Your Local Weather - Clay, NY Station Historical Data
Daily Summary for February 2, 2017 Units:  English    Metric   Both
« Previous Day
Next Day »
Daily Weekly Monthly Yearly Custom
  High: Low: Average:
Temperature: 30.7 °F 20.8 °F 26.2 °F
Dew Point: 24.9 °F 8.2 °F 18.3 °F
Humidity: 90% 52% 73%
Wind Speed: 7.0mph 0.0mph 2.5mph
Wind Gust: 16.0mph - -
Wind- - West
Pressure: 30.18 in 29.95 in -
Precipitation: 0.09 in    
Historical Graphs
 
 
Tabular Data for February 2, 2017
Time Temperature Dew Point Pressure Wind Wind Speed Wind Gust Humidity Rainfall Rate (Hourly) solar
00:00 28.8 °F 20.2 °F 29.96 in West 2.0 mph 3.0 mph 70% 0.00 in 0 W/m2
00:05 28.9 °F 20.3 °F 29.96 in West 2.0 mph 3.0 mph 70% 0.00 in 0 W/m2
00:12 28.7 °F 20.1 °F 29.96 in West 1.0 mph 2.0 mph 70% 0.00 in 0 W/m2
00:18 28.5 °F 20.3 °F 29.96 in West 1.0 mph 2.0 mph 71% 0.00 in 0 W/m2
00:24 28.3 °F 20.1 °F 29.96 in Calm   1.0 mph 71% 0.00 in 0 W/m2
00:30 28.1 °F 20.2 °F 29.96 in Calm     72% 0.00 in 0 W/m2
00:35 28.1 °F 20.2 °F 29.95 in Calm     72% 0.00 in 0 W/m2
00:42 27.8 °F 20.9 °F 29.95 in Calm     75% 0.00 in 0 W/m2
00:48 27.5 °F 20.6 °F 29.95 in Calm     75% 0.00 in 0 W/m2
00:54 27.0 °F 20.4 °F 29.95 in Calm     76% 0.00 in 0 W/m2
00:59 26.6 °F 20.1 °F 29.95 in Calm     76% 0.00 in 0 W/m2
01:05 26.2 °F 19.7 °F 29.95 in Calm     76% 0.00 in 0 W/m2
01:12 25.8 °F 19.3 °F 29.95 in Calm     76% 0.00 in 0 W/m2
01:18 25.9 °F 19.7 °F 29.95 in Calm   1.0 mph 77% 0.00 in 0 W/m2
01:24 26.1 °F 19.9 °F 29.95 in Calm   1.0 mph 77% 0.00 in 0 W/m2
01:30 26.6 °F 20.1 °F 29.95 in Calm     76% 0.00 in 0 W/m2
01:35 26.9 °F 20.3 °F 29.95 in Calm     76% 0.00 in 0 W/m2
01:42 27.0 °F 20.4 °F 29.96 in Calm     76% 0.00 in 0 W/m2
01:48 27.0 °F 20.4 °F 29.96 in Calm     76% 0.00 in 0 W/m2
01:54 27.0 °F 20.4 °F 29.96 in Calm     76% 0.00 in 0 W/m2
01:59 27.0 °F 20.7 °F 29.96 in Calm     77% 0.00 in 0 W/m2
02:05 27.1 °F 20.8 °F 29.96 in Calm   1.0 mph 77% 0.00 in 0 W/m2
02:12 27.3 °F 21.0 °F 29.96 in Calm     77% 0.00 in 0 W/m2
02:18 27.4 °F 20.8 °F 29.96 in Calm     76% 0.00 in 0 W/m2
02:23 27.3 °F 20.7 °F 29.96 in Calm     76% 0.00 in 0 W/m2
02:30 27.2 °F 20.6 °F 29.96 in Calm     76% 0.00 in 0 W/m2
02:36 27.1 °F 20.8 °F 29.96 in Calm     77% 0.00 in 0 W/m2
02:42 27.1 °F 20.8 °F 29.96 in Calm     77% 0.00 in 0 W/m2
02:48 27.2 °F 20.9 °F 29.96 in Calm   1.0 mph 77% 0.00 in 0 W/m2
02:53 27.3 °F 20.7 °F 29.95 in WSW 1.0 mph 3.0 mph 76% 0.00 in 0 W/m2
02:59 27.6 °F 21.3 °F 29.95 in WSW 2.0 mph 2.0 mph 77% 0.00 in 0 W/m2
03:05 27.8 °F 21.8 °F 29.95 in SW 2.0 mph 4.0 mph 78% 0.00 in 0 W/m2
03:12 27.9 °F 22.5 °F 29.95 in WSW 3.0 mph 3.0 mph 80% 0.00 in 0 W/m2
03:18 27.9 °F 22.8 °F 29.95 in SW 2.0 mph 4.0 mph 81% 0.00 in 0 W/m2
03:24 27.8 °F 23.0 °F 29.95 in WSW 2.0 mph 3.0 mph 82% 0.00 in 0 W/m2
03:30 27.8 °F 23.3 °F 29.95 in WSW 2.0 mph 2.0 mph 83% 0.00 in 0 W/m2
03:35 27.8 °F 23.6 °F 29.95 in WSW 1.0 mph 7.0 mph 84% 0.00 in 0 W/m2
03:42 27.8 °F 23.6 °F 29.95 in West 2.0 mph 2.0 mph 84% 0.00 in 0 W/m2
03:48 27.8 °F 23.9 °F 29.95 in West 1.0 mph 3.0 mph 85% 0.00 in 0 W/m2
03:54 27.8 °F 23.9 °F 29.95 in West 1.0 mph 2.0 mph 85% 0.00 in 0 W/m2
03:59 27.9 °F 24.0 °F 29.95 in West 1.0 mph 2.0 mph 85% 0.00 in 0 W/m2
04:05 28.0 °F 24.1 °F 29.95 in SW 2.0 mph 4.0 mph 85% 0.00 in 0 W/m2
04:12 28.1 °F 23.9 °F 29.96 in WSW 2.0 mph 4.0 mph 84% 0.00 in 0 W/m2
04:18 28.1 °F 23.9 °F 29.95 in SW 2.0 mph 4.0 mph 84% 0.00 in 0 W/m2
04:24 28.0 °F 24.1 °F 29.96 in West 2.0 mph 4.0 mph 85% 0.00 in 0 W/m2
04:30 27.9 °F 24.3 °F 29.96 in WNW 2.0 mph 2.0 mph 86% 0.00 in 0 W/m2
04:36 27.7 °F 24.1 °F 29.96 in West 1.0 mph 2.0 mph 86% 0.00 in 0 W/m2
04:42 27.6 °F 24.2 °F 29.96 in West 1.0 mph 1.0 mph 87% 0.00 in 0 W/m2
04:48 27.6 °F 24.5 °F 29.96 in West 1.0 mph 3.0 mph 88% 0.00 in 0 W/m2
04:53 27.5 °F 24.7 °F 29.97 in Calm   1.0 mph 89% 0.00 in 0 W/m2
04:59 27.4 °F 24.6 °F 29.97 in Calm     89% 0.00 in 0 W/m2
05:05 27.4 °F 24.6 °F 29.97 in Calm   1.0 mph 89% 0.00 in 0 W/m2
05:12 27.4 °F 24.9 °F 29.97 in Calm   1.0 mph 90% 0.00 in 0 W/m2
05:18 27.3 °F 24.8 °F 29.98 in West 1.0 mph 1.0 mph 90% 0.00 in 0 W/m2
05:24 27.3 °F 24.8 °F 29.98 in West 1.0 mph 1.0 mph 90% 0.00 in 0 W/m2
05:30 27.2 °F 24.7 °F 29.98 in NNW 1.0 mph 2.0 mph 90% 0.00 in 0 W/m2
05:35 27.1 °F 24.6 °F 29.98 in NNW 1.0 mph 2.0 mph 90% 0.00 in 0 W/m2
05:42 26.9 °F 24.4 °F 29.98 in NW 1.0 mph 2.0 mph 90% 0.00 in 0 W/m2
05:48 26.8 °F 24.0 °F 29.98 in NW 1.0 mph 2.0 mph 89% 0.00 in 0 W/m2
05:54 26.7 °F 23.9 °F 29.98 in NNW 2.0 mph 3.0 mph 89% 0.00 in 0 W/m2
06:00 26.6 °F 23.8 °F 29.99 in NNW 2.0 mph 2.0 mph 89% 0.00 in 0 W/m2
06:05 26.5 °F 23.7 °F 29.99 in NNW 2.0 mph 3.0 mph 89% 0.00 in 0 W/m2
06:12 26.4 °F 23.6 °F 29.99 in North 2.0 mph 2.0 mph 89% 0.00 in 0 W/m2
06:18 26.3 °F 23.5 °F 30.00 in NNW 1.0 mph 3.0 mph 89% 0.00 in 0 W/m2
06:23 26.2 °F 23.4 °F 30.00 in NNW 1.0 mph 2.0 mph 89% 0.00 in 0 W/m2
06:30 26.2 °F 23.4 °F 30.00 in NNW 2.0 mph 2.0 mph 89% 0.00 in 0 W/m2
06:36 26.0 °F 23.2 °F 30.01 in NW 2.0 mph 4.0 mph 89% 0.00 in 0 W/m2
06:42 25.9 °F 23.1 °F 30.01 in NNW 2.0 mph 2.0 mph 89% 0.00 in 0 W/m2
06:48 25.8 °F 23.0 °F 30.01 in NNW 1.0 mph 2.0 mph 89% 0.00 in 0 W/m2
06:53 25.8 °F 23.0 °F 30.01 in NNW 1.0 mph 1.0 mph 89% 0.00 in 0 W/m2
06:59 25.7 °F 22.9 °F 30.01 in Calm     89% 0.00 in 0 W/m2
07:06 25.6 °F 22.8 °F 30.02 in Calm     89% 0.00 in 0 W/m2
07:12 25.5 °F 22.7 °F 30.02 in Calm     89% 0.00 in 0 W/m2
07:18 25.5 °F 22.7 °F 30.02 in Calm   1.0 mph 89% 0.00 in 0 W/m2
07:23 25.4 °F 22.6 °F 30.02 in Calm     89% 0.00 in 0 W/m2
07:29 25.4 °F 22.6 °F 30.02 in Calm     89% 0.00 in 0 W/m2
07:36 25.4 °F 22.6 °F 30.02 in Calm     89% 0.00 in 5 W/m2
07:42 25.4 °F 22.6 °F 30.02 in Calm     89% 0.00 in 7 W/m2
07:48 25.4 °F 22.6 °F 30.02 in Calm     89% 0.00 in 11 W/m2
07:53 25.4 °F 22.6 °F 30.02 in Calm     89% 0.00 in 11 W/m2
07:59 25.5 °F 22.7 °F 30.02 in Calm     89% 0.00 in 9 W/m2
08:05 25.5 °F 22.7 °F 30.02 in Calm     89% 0.00 in 11 W/m2
08:12 25.6 °F 22.8 °F 30.02 in Calm     89% 0.00 in 11 W/m2
08:18 25.8 °F 23.0 °F 30.02 in Calm     89% 0.00 in 12 W/m2
08:23 25.8 °F 23.0 °F 30.03 in Calm     89% 0.00 in 11 W/m2
08:29 25.9 °F 23.1 °F 30.04 in Calm     89% 0.00 in 14 W/m2
08:36 25.9 °F 23.1 °F 30.03 in Calm     89% 0.00 in 18 W/m2
08:42 25.8 °F 23.0 °F 30.03 in NNW 1.0 mph 1.0 mph 89% 0.00 in 16 W/m2
08:48 25.6 °F 22.5 °F 30.04 in NNW 1.0 mph 1.0 mph 88% 0.00 in 19 W/m2
08:53 25.5 °F 22.7 °F 30.04 in Calm   1.0 mph 89% 0.00 in 18 W/m2
09:00 25.4 °F 22.3 °F 30.04 in NNW 1.0 mph 1.0 mph 88% 0.00 in 16 W/m2
09:06 25.3 °F 22.2 °F 30.04 in NNW 1.0 mph 1.0 mph 88% 0.00 in 16 W/m2
09:12 25.3 °F 22.2 °F 30.04 in Calm     88% 0.00 in 16 W/m2
09:18 25.3 °F 22.2 °F 30.04 in Calm     88% 0.00 in 19 W/m2
09:23 25.4 °F 22.6 °F 30.04 in Calm     89% 0.00 in 25 W/m2
09:29 25.5 °F 22.7 °F 30.04 in Calm     89% 0.00 in 23 W/m2
09:36 25.7 °F 22.9 °F 30.04 in Calm     89% 0.00 in 32 W/m2
09:42 25.8 °F 23.0 °F 30.04 in Calm     89% 0.00 in 30 W/m2
09:48 25.8 °F 22.7 °F 30.04 in Calm     88% 0.00 in 39 W/m2
09:53 26.2 °F 23.1 °F 30.04 in Calm   1.0 mph 88% 0.00 in 116 W/m2
09:59 26.9 °F 23.3 °F 30.04 in Calm   2.0 mph 86% 0.00 in 77 W/m2
10:05 27.2 °F 23.6 °F 30.04 in Calm   2.0 mph 86% 0.00 in 81 W/m2
10:12 28.2 °F 23.7 °F 30.04 in Calm     83% 0.00 in 47 W/m2
10:18 27.8 °F 23.3 °F 30.04 in NNW 1.0 mph 1.0 mph 83% 0.00 in 56 W/m2
10:23 27.5 °F 23.0 °F 30.04 in Calm   2.0 mph 83% 0.00 in 58 W/m2
10:30 27.6 °F 23.4 °F 30.04 in Calm     84% 0.00 in 58 W/m2
10:35 27.5 °F 23.0 °F 30.04 in Calm   1.0 mph 83% 0.00 in 51 W/m2
10:42 27.3 °F 22.8 °F 30.04 in WSW 1.0 mph 4.0 mph 83% 0.00 in 141 W/m2
10:48 27.5 °F 23.3 °F 30.04 in West 2.0 mph 4.0 mph 84% 0.00 in 151 W/m2
10:54 27.6 °F 23.1 °F 30.04 in NE 2.0 mph 3.0 mph 83% 0.00 in 74 W/m2
11:00 27.2 °F 23.0 °F 30.05 in NW 3.0 mph 3.0 mph 84% 0.00 in 107 W/m2
11:06 26.9 °F 23.3 °F 30.05 in NW 2.0 mph 3.0 mph 86% 0.00 in 83 W/m2
11:12 26.9 °F 23.3 °F 30.04 in NW 1.0 mph 2.0 mph 86% 0.00 in 98 W/m2
11:18 26.8 °F 23.2 °F 30.05 in NW 1.0 mph 2.0 mph 86% 0.00 in 86 W/m2
11:23 26.8 °F 23.2 °F 30.05 in WNW 2.0 mph 3.0 mph 86% 0.00 in 121 W/m2
11:30 26.6 °F 22.4 °F 30.05 in NNW 3.0 mph 3.0 mph 84% 0.00 in 83 W/m2
11:36 26.4 °F 22.2 °F 30.04 in WNW 3.0 mph 3.0 mph 84% 0.00 in 84 W/m2
11:42 26.1 °F 22.2 °F 30.04 in NW 3.0 mph 3.0 mph 85% 0.00 in 42 W/m2
11:48 25.8 °F 22.2 °F 30.04 in NW 3.0 mph 4.0 mph 86% 0.00 in 42 W/m2
11:53 25.7 °F 22.4 °F 30.04 in NW 3.0 mph 3.0 mph 87% 0.00 in 56 W/m2
11:59 25.6 °F 22.5 °F 30.04 in WNW 1.0 mph 1.0 mph 88% 0.00 in 56 W/m2
12:05 25.4 °F 22.3 °F 30.04 in NW 2.0 mph 3.0 mph 88% 0.00 in 95 W/m2
12:12 25.4 °F 22.3 °F 30.04 in NW 2.0 mph 4.0 mph 88% 0.00 in 56 W/m2
12:18 25.4 °F 22.3 °F 30.04 in WNW 2.0 mph 4.0 mph 88% 0.00 in 56 W/m2
12:24 26.2 °F 23.4 °F 30.04 in WNW 1.0 mph 3.0 mph 89% 0.00 in 207 W/m2
12:30 27.0 °F 23.6 °F 30.04 in NNW 1.0 mph 1.0 mph 87% 0.00 in 102 W/m2
12:35 27.6 °F 23.7 °F 30.04 in NNW 1.0 mph 1.0 mph 85% 0.00 in 188 W/m2
12:42 27.3 °F 22.8 °F 30.04 in NW 2.0 mph 2.0 mph 83% 0.00 in 186 W/m2
12:48 28.5 °F 23.4 °F 30.04 in WNW 2.0 mph 4.0 mph 81% 0.00 in 591 W/m2
12:54 28.1 °F 23.0 °F 30.04 in WNW 2.0 mph 2.0 mph 81% 0.00 in 227 W/m2
12:59 28.3 °F 23.2 °F 30.03 in West 2.0 mph 2.0 mph 81% 0.00 in 318 W/m2
13:05 29.8 °F 24.1 °F 30.03 in WSW 2.0 mph 2.0 mph 79% 0.07 in 701 W/m2
13:12 29.3 °F 23.0 °F 30.03 in NW 1.0 mph 2.0 mph 77% 0.09 in 195 W/m2
13:18 28.9 °F 23.2 °F 30.03 in WNW 2.0 mph 3.0 mph 79% 0.09 in 206 W/m2
13:24 28.8 °F 21.9 °F 30.03 in West 2.0 mph 4.0 mph 75% 0.08 in 181 W/m2
13:29 28.7 °F 20.1 °F 30.03 in NW 4.0 mph 4.0 mph 70% 0.04 in 508 W/m2
13:36 29.5 °F 19.9 °F 30.03 in West 5.0 mph 7.0 mph 67% 0.04 in 510 W/m2
13:42 29.8 °F 20.2 °F 30.03 in WNW 5.0 mph 8.0 mph 67% 0.04 in 524 W/m2
13:48 30.5 °F 20.1 °F 30.03 in WSW 5.0 mph 8.0 mph 65% 0.05 in 621 W/m2
13:54 30.7 °F 19.6 °F 30.03 in West 5.0 mph 6.0 mph 63% 0.05 in 599 W/m2
13:59 30.1 °F 19.4 °F 30.03 in WSW 5.0 mph 10.0 mph 64% 0.04 in 425 W/m2
14:05 30.4 °F 18.2 °F 30.03 in WNW 5.0 mph 10.0 mph 60% 0.00 in 594 W/m2
14:12 30.0 °F 17.8 °F 30.03 in WNW 5.0 mph 5.0 mph 60% 0.00 in 272 W/m2
14:18 29.4 °F 18.0 °F 30.03 in WSW 4.0 mph 7.0 mph 62% 0.00 in 167 W/m2
14:24 28.8 °F 19.2 °F 30.03 in WNW 4.0 mph 4.0 mph 67% 0.00 in 98 W/m2
14:30 28.1 °F 18.9 °F 30.04 in WNW 3.0 mph 5.0 mph 68% 0.00 in 88 W/m2
14:35 27.6 °F 19.4 °F 30.04 in West 4.0 mph 8.0 mph 71% 0.00 in 86 W/m2
14:42 27.1 °F 18.9 °F 30.04 in NW 4.0 mph 4.0 mph 71% 0.00 in 158 W/m2
14:48 27.6 °F 18.8 °F 30.04 in WNW 4.0 mph 5.0 mph 69% 0.00 in 127 W/m2
14:54 27.8 °F 17.9 °F 30.04 in West 3.0 mph 5.0 mph 66% 0.00 in 151 W/m2
15:00 28.5 °F 18.9 °F 30.04 in West 3.0 mph 3.0 mph 67% 0.00 in 309 W/m2
15:06 28.9 °F 19.3 °F 30.04 in West 3.0 mph 3.0 mph 67% 0.00 in 128 W/m2
15:12 28.6 °F 18.7 °F 30.05 in West 3.0 mph 6.0 mph 66% 0.00 in 60 W/m2
15:18 27.6 °F 19.1 °F 30.06 in West 4.0 mph 7.0 mph 70% 0.00 in 120 W/m2
15:23 27.3 °F 19.1 °F 30.06 in West 5.0 mph 7.0 mph 71% 0.00 in 65 W/m2
15:29 27.2 °F 19.0 °F 30.06 in West 4.0 mph 4.0 mph 71% 0.00 in 69 W/m2
15:35 27.1 °F 18.9 °F 30.06 in SW 3.0 mph 7.0 mph 71% 0.00 in 232 W/m2
15:42 27.4 °F 18.9 °F 30.06 in West 3.0 mph 3.0 mph 70% 0.00 in 237 W/m2
15:48 27.4 °F 17.9 °F 30.06 in West 3.0 mph 5.0 mph 67% 0.00 in 42 W/m2
15:53 27.2 °F 17.0 °F 30.06 in West 3.0 mph 5.0 mph 65% 0.00 in 53 W/m2
15:59 27.2 °F 16.6 °F 30.06 in West 4.0 mph 4.0 mph 64% 0.00 in 62 W/m2
16:05 27.1 °F 16.2 °F 30.06 in West 4.0 mph 7.0 mph 63% 0.00 in 40 W/m2
16:12 27.1 °F 15.4 °F 30.06 in WNW 3.0 mph 3.0 mph 61% 0.00 in 65 W/m2
16:18 27.3 °F 15.2 °F 30.07 in WSW 3.0 mph 4.0 mph 60% 0.00 in 70 W/m2
16:24 27.5 °F 14.6 °F 30.07 in West 4.0 mph 7.0 mph 58% 0.00 in 74 W/m2
16:30 27.7 °F 14.8 °F 30.07 in WSW 5.0 mph 5.0 mph 58% 0.00 in 76 W/m2
16:35 27.7 °F 14.8 °F 30.07 in West 4.0 mph 5.0 mph 58% 0.00 in 58 W/m2
16:42 27.6 °F 14.3 °F 30.07 in NW 4.0 mph 4.0 mph 57% 0.00 in 30 W/m2
16:48 27.5 °F 13.0 °F 30.07 in NW 5.0 mph 6.0 mph 54% 0.00 in 21 W/m2
16:54 27.3 °F 12.4 °F 30.08 in West 5.0 mph 11.0 mph 53% 0.00 in 18 W/m2
17:00 27.3 °F 12.0 °F 30.08 in WNW 4.0 mph 4.0 mph 52% 0.00 in 12 W/m2
17:06 27.2 °F 12.3 °F 30.08 in WNW 4.0 mph 4.0 mph 53% 0.00 in 14 W/m2
17:12 27.1 °F 11.8 °F 30.08 in NW 3.0 mph 4.0 mph 52% 0.00 in 7 W/m2
17:18 26.9 °F 12.0 °F 30.08 in WSW 3.0 mph 4.0 mph 53% 0.00 in 5 W/m2
17:23 26.7 °F 11.4 °F 30.08 in WNW 4.0 mph 4.0 mph 52% 0.00 in 0 W/m2
17:29 26.6 °F 11.7 °F 30.09 in West 3.0 mph 3.0 mph 53% 0.00 in 0 W/m2
17:35 26.5 °F 12.1 °F 30.09 in West 2.0 mph 5.0 mph 54% 0.00 in 0 W/m2
17:42 26.3 °F 11.9 °F 30.09 in SW 1.0 mph 2.0 mph 54% 0.00 in 0 W/m2
17:48 26.2 °F 12.2 °F 30.10 in WNW 2.0 mph 3.0 mph 55% 0.00 in 0 W/m2
17:53 26.3 °F 11.9 °F 30.10 in West 3.0 mph 6.0 mph 54% 0.00 in 0 W/m2
18:00 26.4 °F 12.4 °F 30.11 in WSW 3.0 mph 3.0 mph 55% 0.00 in 0 W/m2
18:06 26.3 °F 12.3 °F 30.11 in West 2.0 mph 8.0 mph 55% 0.00 in 0 W/m2
18:12 26.2 °F 11.8 °F 30.11 in SW 4.0 mph 4.0 mph 54% 0.00 in 0 W/m2
18:18 26.0 °F 11.2 °F 30.12 in West 5.0 mph 8.0 mph 53% 0.00 in 0 W/m2
18:23 25.8 °F 11.0 °F 30.12 in WNW 5.0 mph 10.0 mph 53% 0.00 in 0 W/m2
18:29 25.7 °F 10.9 °F 30.12 in NW 5.0 mph 5.0 mph 53% 0.00 in 0 W/m2
18:36 25.5 °F 11.1 °F 30.12 in WSW 4.0 mph 5.0 mph 54% 0.00 in 0 W/m2
18:42 25.3 °F 11.4 °F 30.13 in WNW 3.0 mph 5.0 mph 55% 0.00 in 0 W/m2
18:48 25.3 °F 12.2 °F 30.13 in WNW 4.0 mph 6.0 mph 57% 0.00 in 0 W/m2
18:53 25.1 °F 12.8 °F 30.14 in WNW 5.0 mph 7.0 mph 59% 0.00 in 0 W/m2
18:59 25.0 °F 12.7 °F 30.14 in WNW 5.0 mph 5.0 mph 59% 0.00 in 0 W/m2
19:06 24.8 °F 12.1 °F 30.14 in West 5.0 mph 8.0 mph 58% 0.00 in 0 W/m2
19:12 24.7 °F 12.0 °F 30.14 in WNW 6.0 mph 8.0 mph 58% 0.00 in 0 W/m2
19:18 24.5 °F 11.8 °F 30.14 in WNW 6.0 mph 8.0 mph 58% 0.00 in 0 W/m2
19:23 24.5 °F 11.8 °F 30.15 in NW 5.0 mph 7.0 mph 58% 0.00 in 0 W/m2
19:29 24.3 °F 11.2 °F 30.15 in WNW 5.0 mph 8.0 mph 57% 0.00 in 0 W/m2
19:36 24.2 °F 11.1 °F 30.15 in WNW 4.0 mph 8.0 mph 57% 0.00 in 0 W/m2
19:42 24.0 °F 11.0 °F 30.15 in West 4.0 mph 6.0 mph 57% 0.00 in 0 W/m2
19:48 23.9 °F 10.5 °F 30.16 in West 5.0 mph 6.0 mph 56% 0.00 in 0 W/m2
19:53 23.8 °F 10.4 °F 30.16 in West 6.0 mph 13.0 mph 56% 0.00 in 0 W/m2
19:59 23.7 °F 9.9 °F 30.16 in WNW 6.0 mph 6.0 mph 55% 0.00 in 0 W/m2
20:05 23.6 °F 9.8 °F 30.16 in WSW 6.0 mph 13.0 mph 55% 0.00 in 0 W/m2
20:12 23.7 °F 9.9 °F 30.16 in WSW 7.0 mph 16.0 mph 55% 0.00 in 0 W/m2
20:18 23.5 °F 9.7 °F 30.16 in West 7.0 mph 16.0 mph 55% 0.00 in 0 W/m2
20:23 23.5 °F 10.1 °F 30.16 in WSW 6.0 mph 7.0 mph 56% 0.00 in 0 W/m2
20:29 23.3 °F 9.9 °F 30.16 in West 6.0 mph 6.0 mph 56% 0.00 in 0 W/m2
20:36 23.3 °F 9.9 °F 30.16 in WSW 6.0 mph 7.0 mph 56% 0.00 in 0 W/m2
20:42 23.2 °F 9.8 °F 30.16 in WSW 6.0 mph 6.0 mph 56% 0.00 in 0 W/m2
20:48 23.1 °F 9.7 °F 30.16 in WSW 6.0 mph 6.0 mph 56% 0.00 in 0 W/m2
20:54 23.1 °F 9.7 °F 30.16 in West 5.0 mph 6.0 mph 56% 0.00 in 0 W/m2
20:59 23.2 °F 10.2 °F 30.16 in WSW 5.0 mph 10.0 mph 57% 0.00 in 0 W/m2
21:06 23.3 °F 9.9 °F 30.17 in West 6.0 mph 10.0 mph 56% 0.00 in 0 W/m2
21:12 23.3 °F 9.9 °F 30.17 in West 6.0 mph 8.0 mph 56% 0.00 in 0 W/m2
21:18 23.3 °F 9.9 °F 30.17 in West 6.0 mph 8.0 mph 56% 0.00 in 0 W/m2
21:23 23.2 °F 9.8 °F 30.17 in West 5.0 mph 10.0 mph 56% 0.00 in 0 W/m2
21:30 23.2 °F 9.8 °F 30.17 in WSW 5.0 mph 5.0 mph 56% 0.00 in 0 W/m2
21:35 23.1 °F 9.3 °F 30.17 in SW 5.0 mph 7.0 mph 55% 0.00 in 0 W/m2
21:42 23.2 °F 9.8 °F 30.17 in WSW 5.0 mph 5.0 mph 56% 0.00 in 0 W/m2
21:48 23.0 °F 9.6 °F 30.17 in SW 4.0 mph 5.0 mph 56% 0.00 in 0 W/m2
21:53 22.9 °F 9.5 °F 30.17 in West 5.0 mph 10.0 mph 56% 0.00 in 0 W/m2
22:00 22.8 °F 9.8 °F 30.17 in West 6.0 mph 8.0 mph 57% 0.00 in 0 W/m2
22:06 22.6 °F 9.6 °F 30.18 in West 6.0 mph 8.0 mph 57% 0.00 in 0 W/m2
22:12 22.6 °F 9.6 °F 30.18 in SW 6.0 mph 9.0 mph 57% 0.00 in 0 W/m2
22:13 22.5 °F 9.5 °F 30.18 in West 6.0 mph 9.0 mph 57% 0.00 in 0 W/m2
22:19 22.4 °F 9.4 °F 30.18 in WSW 6.0 mph 6.0 mph 57% 0.00 in 0 W/m2
22:26 22.3 °F 9.7 °F 30.18 in WSW 5.0 mph 6.0 mph 58% 0.00 in 0 W/m2
22:32 22.3 °F 9.4 °F 30.18 in WSW 5.0 mph 7.0 mph 57% 0.00 in 0 W/m2
22:38 22.3 °F 9.4 °F 30.18 in WSW 6.0 mph 7.0 mph 57% 0.00 in 0 W/m2
22:44 22.4 °F 9.1 °F 30.17 in West 5.0 mph 6.0 mph 56% 0.00 in 0 W/m2
22:49 22.4 °F 9.1 °F 30.17 in West 5.0 mph 5.0 mph 56% 0.00 in 0 W/m2
22:55 22.4 °F 9.1 °F 30.17 in West 4.0 mph 5.0 mph 56% 0.00 in 0 W/m2
23:02 22.3 °F 8.6 °F 30.18 in West 5.0 mph 7.0 mph 55% 0.00 in 0 W/m2
23:08 22.1 °F 8.4 °F 30.17 in WSW 6.0 mph 7.0 mph 55% 0.00 in 0 W/m2
23:14 22.0 °F 8.7 °F 30.17 in West 5.0 mph 8.0 mph 56% 0.00 in 0 W/m2
23:20 21.8 °F 8.5 °F 30.17 in WSW 5.0 mph 5.0 mph 56% 0.00 in 0 W/m2
23:25 21.7 °F 8.8 °F 30.17 in SSW 6.0 mph 8.0 mph 57% 0.00 in 0 W/m2
23:32 21.5 °F 8.6 °F 30.17 in SW 5.0 mph 5.0 mph 57% 0.00 in 0 W/m2
23:38 21.3 °F 8.4 °F 30.17 in SW 5.0 mph 8.0 mph 57% 0.00 in 0 W/m2
23:43 21.1 °F 8.2 °F 30.17 in WSW 6.0 mph 9.0 mph 57% 0.00 in 0 W/m2
23:49 21.0 °F 8.5 °F 30.17 in West 5.0 mph 5.0 mph 58% 0.00 in 0 W/m2
23:55 20.8 °F 8.3 °F 30.17 in West 3.0 mph 5.0 mph 58% 0.00 in 0 W/m2
Country Meadow, Clay, NY, USA
Compliments of Weather Underground - 2 mb